Theta_e
294 294 294 294 294 294 294 294 294 293 293 294 295 296 295 293 293 291 290 290 290 290 292 293 293 294 295 296 296 295 295 294 295 295 295 296 297 301 301 302 302 303 302
294 294 295 295 295 295 295 295 294 294 293 293 294 295 296 295 294 292 291 291 290 290 291 292 293 294 295 296 296 296 295 295 294 294 295 295 296 297 298 300 300 301 302
294 295 295 295 295 295 295 294 294 294 294 293 293 294 295 296 295 294 292 292 291 290 291 293 292 293 294 296 296 296 295 295 295 294 295 295 295 295 295 296 297 300 300
295 295 295 294 294 294 294 294 294 294 294 293 293 293 295 297 296 295 293 292 292 291 290 291 291 292 292 294 295 296 296 295 295 295 294 294 294 295 294 295 295 296 297
294 295 294 294 294 294 294 293 294 294 293 293 292 292 293 296 298 296 294 292 292 292 291 292 293 292 292 293 293 295 295 295 295 295 295 295 295 295 295 294 294 294 295
294 294 294 294 294 294 293 293 293 293 293 292 292 291 291 294 296 296 294 291 291 292 292 292 293 294 294 293 292 291 294 295 294 295 294 295 294 293 294 293 293 293 293
294 294 294 295 294 293 293 293 293 293 293 293 292 292 292 292 294 295 292 292 291 291 292 292 293 294 295 294 293 292 292 291 293 292 291 292 292 292 292 293 292 292 292
295 295 295 294 293 293 293 292 292 292 292 292 292 292 292 292 293 295 294 292 292 292 291 291 292 293 294 294 293 292 291 291 291 290 291 291 291 291 291 290 290 290 292
295 295 295 294 293 292 292 292 292 292 292 292 292 292 292 291 292 293 295 292 291 291 291 291 291 292 294 294 293 292 293 292 291 290 290 289 290 292 291 290 289 289 290
295 295 295 294 293 293 292 292 292 293 293 292 292 292 292 291 291 291 294 291 291 291 291 291 291 292 293 293 293 291 292 292 292 292 291 290 290 289 289 289 289 289 288
296 295 295 294 294 294 293 293 293 293 293 293 292 292 291 292 291 291 290 290 290 291 291 290 291 291 291 291 291 292 292 292 292 293 292 292 291 290 290 290 290 290 289
296 295 295 295 294 294 294 294 294 293 293 293 293 292 292 292 292 291 291 290 290 290 291 291 290 290 291 291 291 291 291 292 292 293 293 293 292 291 290 290 290 290 289
297 296 295 295 295 294 294 294 294 294 293 293 293 293 293 292 292 292 291 291 290 290 290 290 291 290 290 290 290 291 291 291 291 291 292 293 293 292 291 291 290 290 290
297 297 296 295 295 294 294 294 294 294 294 293 293 293 293 293 292 293 292 291 291 290 290 290 290 290 290 290 290 290 290 290 291 292 292 292 293 293 293 292 292 292 292
296 297 297 296 295 295 294 294 294 294 294 294 293 293 293 293 292 292 292 291 291 291 290 290 290 290 290 289 289 289 289 289 289 290 291 293 293 293 294 294 293 293 292
295 295 297 297 297 296 295 295 294 294 294 293 293 293 293 293 292 292 292 292 291 291 290 291 290 289 289 289 289 289 288 289 290 289 289 289 291 293 293 293 292 292 292
294 294 295 295 296 296 296 296 296 295 294 294 294 293 293 293 293 292 292 292 291 291 291 291 290 289 289 289 289 288 288 288 288 290 289 289 289 289 289 289 289 289 289
294 294 294 294 294 295 295 294 294 294 295 294 293 293 293 292 292 291 291 290 290 290 291 291 290 289 289 289 290 289 288 288 288 288 289 289 289 289 289 289 289 289 289
294 293 293 293 293 294 294 294 293 293 293 292 292 292 292 291 291 291 290 290 290 289 289 289 290 289 289 289 289 293 290 288 288 288 288 288 288 288 288 288 288 288 288
296 293 293 293 293 293 293 293 293 292 292 292 291 291 291 291 291 290 290 289 289 289 288 289 289 289 289 289 289 290 293 291 288 288 288 288 288 288 288 288 288 288 288
296 294 293 292 292 292 292 292 292 292 291 291 291 291 291 290 290 289 289 289 288 288 288 288 288 288 289 289 289 289 291 291 289 288 288 288 288 288 288 288 287 287 287
295 295 294 293 292 292 292 292 291 291 291 291 291 290 290 290 289 289 289 288 288 288 288 288 288 288 288 288 289 289 290 291 291 289 288 288 288 288 287 288 287 287 287
295 294 295 294 292 291 291 291 291 291 291 291 291 290 290 289 289 289 288 288 288 288 288 288 288 288 288 288 288 288 290 291 290 288 288 288 288 287 287 287 287 287 287
295 294 293 293 292 291 291 291 291 291 291 292 292 293 292 290 289 288 288 288 288 288 288 288 288 288 288 288 288 288 290 291 292 289 288 288 288 288 287 287 287 287 287
295 293 292 292 293 292 292 292 292 293 293 293 293 291 289 289 289 288 288 288 288 288 288 288 288 288 288 288 288 288 290 292 292 289 288 288 287 287 287 287 287 287 287
295 292 292 292 291 292 292 291 291 292 292 291 289 289 289 289 288 288 288 288 288 288 288 288 288 288 288 288 288 288 289 291 290 288 288 288 287 287 287 286 286 286 287
Wind_Speed
8 8 9 10 10 11 13 14 15 16 16 16 18 20 22 23 22 20 19 21 20 16 15 18 16 11 5 4 4 6 5 5 5 6 6 4 3 7 9 10 13 12 13
6 7 9 9 9 11 12 13 14 15 16 16 15 17 19 20 26 24 21 20 21 18 15 16 18 14 11 8 5 3 3 5 3 3 3 5 4 4 7 11 13 13 19
5 6 8 9 10 11 13 14 14 14 15 15 15 16 20 20 22 26 23 20 19 18 14 12 18 16 14 16 10 4 4 2 3 3 3 5 7 6 4 6 10 15 18
5 5 7 9 10 12 13 14 14 15 15 15 14 14 15 20 18 23 26 21 19 18 14 15 16 17 17 14 11 11 8 4 3 3 4 4 5 6 7 5 6 10 13
6 6 7 9 11 12 13 14 14 14 15 16 16 13 12 11 22 21 23 20 19 16 14 15 17 14 16 14 14 10 8 6 4 5 7 8 6 6 8 9 8 10 12
7 6 7 8 10 11 12 13 13 14 15 16 17 17 15 9 12 16 20 19 16 16 13 13 15 16 16 18 16 13 6 12 6 7 8 7 9 8 7 10 13 15 14
8 7 6 7 9 10 11 12 13 13 15 16 17 18 17 13 10 15 18 18 16 15 14 14 13 13 16 17 19 16 13 7 6 10 10 9 11 10 11 13 16 19 19
8 7 7 7 8 9 10 11 12 13 14 16 16 17 17 15 14 12 18 19 16 15 14 14 14 13 18 17 20 17 15 12 12 8 8 8 8 9 10 14 13 14 15
9 8 8 8 8 8 9 10 12 13 14 15 17 17 16 17 15 14 16 18 16 15 14 14 13 13 14 16 18 17 15 13 12 10 9 10 9 7 13 14 13 15 18
10 9 9 9 8 9 9 11 12 14 16 16 16 17 17 17 18 18 15 19 18 18 15 14 13 12 12 11 15 15 16 16 16 12 9 9 11 12 14 16 15 16 15
12 11 11 10 9 9 9 11 12 13 15 16 17 17 17 18 17 18 17 18 20 20 19 17 15 15 14 14 13 12 13 17 15 14 13 11 10 11 13 14 16 16 16
14 13 12 12 11 10 10 10 12 13 13 14 15 14 15 16 17 17 17 17 19 19 19 19 18 17 16 14 12 13 13 13 14 14 15 14 13 11 8 10 12 14 16
17 15 14 13 12 12 12 11 12 13 13 14 15 15 15 15 15 16 16 17 17 18 18 19 18 17 16 15 14 13 12 12 13 13 14 15 16 13 12 9 9 10 11
19 17 16 15 14 14 14 14 14 14 14 15 15 16 16 17 17 17 18 17 16 16 16 16 16 16 16 16 14 13 13 13 13 14 13 12 12 14 13 12 10 10 12
20 19 18 17 16 15 15 15 16 15 16 17 16 17 19 20 20 19 18 18 17 16 15 14 13 12 14 15 14 15 14 13 13 13 13 12 12 12 12 13 13 14 15
21 20 20 19 18 17 16 15 16 17 16 16 17 18 19 19 19 20 19 18 17 15 15 14 14 14 14 16 18 17 16 16 15 14 14 14 14 15 15 14 17 19 21
22 20 20 21 19 18 18 18 17 13 15 15 17 18 18 19 20 20 19 16 16 15 14 13 13 14 13 14 16 18 19 18 17 16 15 14 14 15 16 16 17 18 20
23 21 21 20 19 18 18 17 17 18 17 15 14 17 19 18 19 19 19 18 15 13 13 13 14 15 13 13 14 17 17 17 16 15 15 15 15 16 17 17 18 19 19
23 22 20 20 19 18 17 16 17 17 17 16 16 15 17 17 17 17 17 17 16 15 13 12 12 15 14 12 13 13 17 19 19 18 16 16 17 18 17 18 19 18 19
23 21 21 20 18 18 17 17 16 16 16 15 16 16 17 17 17 17 16 16 15 13 13 13 13 14 13 13 13 13 14 16 19 18 17 17 17 18 18 18 20 21 21
21 20 19 19 18 17 17 16 15 15 15 15 15 15 16 17 17 17 16 15 15 14 14 13 13 14 12 11 12 13 14 15 20 20 18 18 18 19 19 18 20 21 22
21 20 19 18 17 16 15 14 14 14 13 13 15 15 15 15 15 14 13 13 12 12 13 13 13 13 13 13 13 13 14 16 17 21 21 20 20 19 19 19 20 20 21
21 19 18 16 14 14 13 12 13 13 13 14 15 14 14 12 11 11 11 12 11 11 11 12 12 11 12 12 13 12 14 16 18 22 21 20 20 19 19 20 20 21 21
21 18 16 13 13 13 13 12 12 13 12 13 13 11 9 9 8 7 8 9 10 10 10 11 12 13 13 12 11 10 11 16 16 20 20 19 19 18 18 18 19 19 20
21 18 15 13 14 13 13 12 12 10 8 8 6 5 5 5 6 6 7 8 9 9 10 11 12 13 13 13 12 11 12 16 14 19 19 18 17 17 17 17 18 18 18
19 17 16 15 13 14 12 10 8 7 5 2 1 3 4 5 6 6 7 8 8 9 10 10 12 12 12 12 12 11 13 14 16 18 17 17 17 17 16 17 17 17 17
Wind_Direction
351 355 357 359 355 358 359 0 358 359 360 0 10 9 6 15 10 6 357 356 355 359 11 12 359 5 330 1 17 25 10 1 354 347 356 353 320 209 209 222 242 231 225
347 352 354 355 350 351 350 354 356 356 356 351 352 3 357 3 11 9 1 356 360 3 8 15 18 24 22 358 312 351 0 351 347 351 360 348 319 266 257 244 239 242 241
332 346 347 345 346 345 347 348 346 347 350 349 345 350 357 358 1 5 0 357 0 2 6 7 16 21 7 23 15 319 306 301 333 337 343 352 348 339 300 252 235 239 245
308 328 340 346 344 349 345 343 344 348 349 349 347 344 349 360 355 360 357 359 1 2 7 8 5 18 16 2 10 34 27 331 302 318 314 318 323 320 330 319 273 257 247
288 315 333 339 346 351 343 345 348 347 348 349 354 350 342 355 14 349 349 357 0 8 11 12 12 15 14 17 7 353 350 14 353 306 300 289 301 304 306 307 306 293 272
280 300 323 338 340 344 345 350 356 354 354 357 358 359 354 352 14 347 345 358 1 6 9 12 14 4 2 7 7 12 335 4 329 309 288 298 296 301 300 299 308 307 313
274 294 317 330 334 343 347 353 359 0 3 1 3 4 5 357 10 352 355 2 4 7 7 4 10 9 3 4 4 0 355 344 317 320 312 302 295 301 298 300 294 291 286
265 284 304 319 330 341 344 352 356 359 4 3 3 5 7 4 12 13 348 356 355 360 358 356 355 8 5 354 356 356 6 354 336 317 314 320 325 319 314 304 315 315 308
256 275 293 308 317 333 338 345 349 353 356 359 1 0 2 5 5 8 349 360 360 1 359 357 354 0 7 343 345 353 2 3 352 331 301 280 270 277 292 297 304 311 315
245 262 278 290 298 306 319 329 337 344 348 350 352 352 355 1 2 1 358 359 5 7 2 358 354 356 351 355 337 348 349 354 357 360 338 302 286 277 276 286 295 301 306
238 251 265 274 281 291 302 313 322 330 335 339 342 345 349 353 359 360 4 358 4 4 360 1 360 359 353 350 347 353 345 341 353 352 354 351 324 292 280 281 287 292 297
236 244 255 266 274 281 290 300 309 315 321 326 330 339 342 347 353 357 359 360 359 360 1 3 1 358 353 351 348 346 346 346 351 357 358 359 0 359 334 303 295 292 289
238 243 250 257 268 276 283 290 297 305 312 319 323 330 341 342 345 349 357 357 358 358 358 0 358 356 355 350 347 348 348 349 350 352 354 358 1 357 353 342 321 314 305
241 244 253 259 267 276 284 292 297 302 306 311 317 321 330 337 340 344 350 351 353 356 358 358 354 356 355 354 351 349 348 346 347 351 353 352 353 356 360 359 356 345 339
243 246 251 259 268 273 281 290 298 303 304 309 315 322 329 334 340 340 339 341 346 350 353 354 344 359 6 4 5 360 357 352 345 339 339 342 345 342 339 338 338 336 332
243 247 252 258 264 272 279 284 294 303 303 310 314 317 322 323 322 324 330 334 338 342 346 347 341 353 4 7 2 3 0 359 354 346 340 334 330 328 326 326 322 319 316
245 249 253 258 265 272 277 284 290 287 300 306 308 311 314 318 320 321 326 331 333 336 340 342 337 342 349 2 5 2 358 357 355 353 350 344 337 333 328 326 323 319 317
245 248 254 259 265 271 278 285 292 298 300 302 303 308 313 317 319 324 331 335 333 338 342 339 335 335 345 347 359 1 360 356 355 354 353 350 345 342 340 336 334 329 329
245 249 255 259 264 270 276 284 289 293 300 307 310 312 314 319 325 329 331 333 338 342 340 338 333 331 343 345 343 339 354 357 355 352 352 352 350 345 345 344 340 338 334
244 247 253 258 262 267 275 281 286 291 299 304 308 314 318 322 329 334 339 342 344 345 343 343 341 336 348 345 337 342 341 351 356 354 353 351 351 349 345 345 345 342 343
243 245 251 258 261 265 270 277 284 291 298 302 307 314 318 324 332 335 340 343 345 344 349 352 349 348 353 339 335 342 347 349 352 354 355 355 354 352 350 347 346 345 344
240 242 249 257 258 260 265 272 279 287 295 301 305 310 312 318 326 331 341 345 347 350 352 356 354 352 346 340 345 345 347 352 352 354 357 355 354 353 350 349 349 349 348
233 239 246 249 247 250 257 266 275 285 293 298 302 305 306 315 326 337 349 353 355 359 1 359 357 354 349 349 347 343 345 350 352 353 352 353 351 351 352 352 350 350 352
228 235 249 233 237 243 252 261 272 282 291 295 298 304 312 322 327 349 2 4 9 6 6 4 0 359 360 358 354 349 346 341 344 348 348 350 351 350 351 352 353 354 353
222 228 235 242 233 242 247 254 266 280 293 300 308 325 348 359 12 20 22 21 18 19 17 10 8 7 6 4 2 359 356 353 350 349 350 351 352 352 352 354 356 358 357
218 222 224 232 240 239 242 250 260 268 269 272 337 37 46 39 39 36 33 29 27 24 20 15 13 11 9 7 5 4 5 3 353 354 357 356 355 356 357 358 359 0 3